Starlink 33941

operational
NORAD ID: 63765 Int'l Des: 2025-089 Owner: SPXS Country: US Constellation: starlink
LEOCIRCULAR

About Starlink 33941

Description loading...

Live Position

Loading 3D Globe...

Upcoming Passes

Altitude History

Altitude vs Time

uPlot chart will show altitude changes over time

Two-Line Element Set

1 63765U 25089Q 25260.14015377 .00025746 00000-0 94190-3 0 9994
2 63765 42.9959 305.5024 0000517 302.7975 57.2827 15.27578351 22405
Epoch: Sep 17, 2025 • Age: 23 hours

Current Status

Altitude 495.7 km
Velocity 7.62 km/s
Sub-Earth Point -42.48°S, 163.39°E
Launch Date Apr 29, 2025
Age 0.3 years
Type internet

Technical Details

Classification Payload
Mass 575.00 kg
Dry Mass 530.00 kg
Total Mass 575.00 kg
Length 0.30 m
Diameter 4.10 m
Span 29.00 m
Shape Box + pan
Manufacturer SPXS
Bus Type Starlink V2MO
Phase Status In Orbit
Owner/State SPXS/US

Large Constellations

Loading constellations...